Location: Bermeries
(50.2863°N, 3.7551°E)
Time: 14:43:02
(UTC+00:00)

CZ-2C R/B - Pass Details

Date: 23 May 2024
Orbit: 784 x 868 km, 98.3° (Epoch: 18 June)

Event Time Altitude Azimuth Distance (km) Brightness Sun altitude
Exits shadow 02:29:16 10° 196° (SSW) 2,318 4.4 -10.0°
Maximum altitude 02:33:59 38° 264° (W) 1,191 3.2 -9.5°
Drops below altitude 10° 02:38:49 10° 332° (NNW) 2,361 5.3 -9.0°
Sets 02:41:20 0° 340° (NNW) 3,302 6.2 -8.8°
